This is the latest recevied weather packets stored in our database for station/object N3SBK. If no packets are shown the sender has not sent any weather packets the latest 1 day(s).
| Time | Temp. | Humidity | Pressure | Rain* | Wind** | Luminosity | Snow |
|---|---|---|---|---|---|---|---|
| 1778096718 | 10.56° C | 92% | 1001.4 hPa | 0 mm | - | 36 W/m² | - |
| 1778093988 | 10.56° C | 94% | 1001.2 hPa | 0 mm | - | 64 W/m² | - |
| 1778089745 | 11.11° C | 93% | 1000.5 hPa | 0 mm | - | 111 W/m² | - |
| 1778088230 | 12.22° C | 93% | 1000.5 hPa | 0 mm | - | 108 W/m² | - |
| 1778086111 | 12.22° C | 94% | 999.9 hPa | 0 mm | - | 90 W/m² | - |
| 1778085505 | 12.22° C | 94% | 999.6 hPa | 0 mm | - | 137 W/m² | - |
| 1778084594 | 12.22° C | 94% | 999.9 hPa | 0 mm | - | 70 W/m² | - |
| 1778083686 | 12.22° C | 94% | 999.9 hPa | 0 mm | - | 66 W/m² | - |
| 1778083382 | 12.22° C | 94% | 999.6 hPa | 0 mm | - | 58 W/m² | - |
| 1778081038 | 14.44° C | 94% | 998.7 hPa | 0 mm | - | 25 W/m² | - |
| 1778080737 | 14.44° C | 94% | 998.7 hPa | 0 mm | - | 42 W/m² | - |
| 1778080131 | 14.44° C | 94% | 998.5 hPa | 0 mm | - | 80 W/m² | - |
| 1778079524 | 14.44° C | 93% | 998.4 hPa | 0 mm | - | 46 W/m² | - |
| 1778079220 | 14.44° C | 93% | 998.4 hPa | 0 mm | - | 45 W/m² | - |
| 1778078614 | 14.44° C | 92% | 998.2 hPa | 0 mm | - | 44 W/m² | - |
| 1778078313 | 14.44° C | 92% | 998.3 hPa | 0 mm | - | 31 W/m² | - |
| 1778077708 | 14.44° C | 90% | 998 hPa | 0 mm | - | 39 W/m² | - |
| 1778075893 | 14.44° C | 89% | 997.9 hPa | 0 mm | - | 50 W/m² | - |
| 1778074376 | 14.44° C | 91% | 997.7 hPa | 0 mm | - | 90 W/m² | - |
| 1778073770 | 13.89° C | 92% | 997.9 hPa | 0 mm | - | 50 W/m² | - |
| 1778071046 | 13.33° C | 95% | 998.2 hPa | 0 mm | - | 33 W/m² | - |
| 1778070441 | 13.33° C | 95% | 998.3 hPa | 0 mm | - | 20 W/m² | - |
| 1778068928 | 12.78° C | 95% | 997.7 hPa | 0 mm | - | 34 W/m² | - |
| 1778068626 | 12.78° C | 95% | 998 hPa | 0 mm | - | 13 W/m² | - |
| 1778067417 | 12.78° C | 95% | 997.9 hPa | 0 mm | - | 46 W/m² | - |
* Rain latest hour (hover to see other rain measurements)
** Current wind speed in m/s (hover to see current wind gust speed)